Regional Weather Roundup
Issued by NWS

Home | Current Version | Previous Version | Text Only | Print | Product List | Glossary On
Versions: 1 2 3 4 5 6 7 8 9 10 11 12 13 14 15 16 17 18 19 20 21 22 23 24 25 26 27
000
ASCA42 TJSJ 270710
RWRPR
PUERTO RICO/U.S. VIRGIN ISLANDS HOURLY WEATHER ROUNDUP
NATIONAL WEATHER SERVICE SAN JUAN PR
300 AM AST WED JUL 27 2016

PRZ001-004-270800-
PUERTO RICO

CITY           SKY/WX    TMP DP  RH WIND       PRES   REMARKS
SAN JUAN LMM   PTCLDY    81  79  94 CALM      29.99S
PONCE          CLEAR     79  73  83 CALM      29.96R
CEIBA          CLOUDY    82  77  83 NE8       30.01S HX  91
$$

PRZ006-007-270800-
U.S. VIRGIN ISLANDS

CITY           SKY/WX    TMP DP  RH WIND       PRES   REMARKS
CHARLOTTE AMA  CLEAR     84  79  84 E10       29.98S HX  96
CHRISTIANSTED  CLEAR     82  77  83 E9        29.98F HX  91
$$

HOURLY WEATHER ROUNDUP FOR THE NEWS MEDIA

CITY           SKY/WX    TMP DP  RH WIND       PRES   REMARKS
ORLANDO        CLEAR     81  74  79 S5        30.08F
NEW YORK       PTCLDY    77  61  57 N6        29.93F
NEWARK         MOCLDY    77  62  59 N5        29.93S
CHICAGO        CLEAR     73  64  73 CALM      29.99F
HARTFORD       CLEAR     67  62  84 CALM      29.89R
BOSTON         CLEAR     77  59  53 NW10      29.89S
DALLAS         MOCLDY    83  73  72 S8        29.91F
PHILADELPHIA   CLOUDY    79  67  66 NE6       29.93S
LOS ANGELES    PTCLDY    70  63  78 SW5       29.89S
WASHINGTON DC  CLOUDY    78  71  79 CALM      29.94F



USA.gov is the U.S. government's official web portal to all federal, state and local government web resources and services.